| time (UTC) | temp C | wind direction | speed KPH | gust KPH | rain 1hr cm | rain 24hr cm | rain mn cm | humidity % | barometer mb |
| 20260906094844 | 30 | 330 | 19.3 | 0.0 | 0.00 | 0.00 | 0.00 | 38 | 1016.0 |
| 20260906093344 | 30 | 330 | 19.3 | 0.0 | 0.00 | 0.00 | 0.00 | 38 | 1016.0 |
| 20260906091844 | 29 | 320 | 19.3 | 0.0 | 0.00 | 0.00 | 0.00 | 42 | 1017.0 |
| 20260906090343 | 28 | 320 | 17.7 | 0.0 | 0.00 | 0.00 | 0.00 | 43 | 1016.0 |
| 20260906084843 | 30 | 320 | 17.7 | 0.0 | 0.00 | 0.00 | 0.00 | 37 | 1016.0 |
| 20260906083343 | 28 | 320 | 17.7 | 0.0 | 0.00 | 0.00 | 0.00 | 41 | 1016.0 |
| 20260906081843 | 28 | 340 | 17.7 | 0.0 | 0.00 | 0.00 | 0.00 | 44 | 1017.0 |
| 20260906080342 | 28 | 340 | 17.7 | 0.0 | 0.00 | 0.00 | 0.00 | 43 | 1017.0 |
| 20260906074842 | 28 | 313 | 8.0 | 14.5 | 0.00 | 0.00 | 0.00 | 42 | 1016.0 |
| 20260906073342 | 26 | 350 | 6.4 | 0.0 | 0.00 | 0.00 | 0.00 | 48 | 1016.0 |
| 20260906071841 | 25 | 360 | 6.4 | 0.0 | 0.00 | 0.00 | 0.00 | 55 | 1017.0 |
| 20260906070341 | 25 | 0 | 4.8 | 0.0 | 0.00 | 0.00 | 0.00 | 55 | 1016.0 |
| 20260906064841 | 25 | 0 | 4.8 | 0.0 | 0.00 | 0.00 | 0.00 | 61 | 1016.0 |
| 20260906063341 | 25 | 0 | 4.8 | 0.0 | 0.00 | 0.00 | 0.00 | 59 | 1016.0 |
| 20260906061840 | 25 | 0 | 4.8 | 0.0 | 0.00 | 0.00 | 0.00 | 57 | 1016.0 |
| 20260906060340 | 25 | 0 | 4.8 | 0.0 | 0.00 | 0.00 | 0.00 | 58 | 1016.0 |
| 20260906054840 | 25 | 320 | 8.0 | 0.0 | 0.00 | 0.00 | 0.00 | 57 | 1016.0 |
| 20260906053340 | 25 | 320 | 8.0 | 0.0 | 0.00 | 0.00 | 0.00 | 58 | 1016.0 |
| 20260906051839 | 24 | 0 | 3.2 | 0.0 | 0.00 | 0.00 | 0.00 | 61 | 1016.0 |
| 20260906050339 | 23 | 0 | 3.2 | 0.0 | 0.00 | 0.00 | 0.00 | 62 | 1016.0 |
| 20260906044839 | 22 | 0 | 4.8 | 0.0 | 0.00 | 0.00 | 0.00 | 56 | 1016.0 |
| 20260906043338 | 22 | 0 | 4.8 | 0.0 | 0.00 | 0.00 | 0.00 | 45 | 1016.0 |
| 20260906041838 | 22 | 0 | 3.2 | 0.0 | 0.00 | 0.00 | 0.00 | 45 | 1016.0 |
| 20260906040338 | 22 | 0 | 3.2 | 0.0 | 0.00 | 0.00 | 0.00 | 46 | 1015.0 |
| 20260906034838 | 22 | 0 | 3.2 | 0.0 | 0.00 | 0.00 | 0.00 | 46 | 1015.0 |
| 20260906033337 | 22 | 0 | 3.2 | 0.0 | 0.00 | 0.00 | 0.00 | 46 | 1015.0 |
| 20260906031837 | 22 | 310 | 6.4 | 0.0 | 0.00 | 0.00 | 0.00 | 46 | 1015.0 |
| 20260906030337 | 22 | 343 | 12.9 | 17.7 | 0.00 | 0.00 | 0.00 | 44 | 1015.0 |
| 20260906024837 | 22 | 300 | 6.4 | 0.0 | 0.00 | 0.00 | 0.00 | 46 | 1015.0 |
| 20260906023336 | 23 | 300 | 6.4 | 0.0 | 0.00 | 0.00 | 0.00 | 45 | 1015.0 |
| 20260906021836 | 23 | 300 | 6.4 | 0.0 | 0.00 | 0.00 | 0.00 | 44 | 1016.0 |
| 20260906020336 | 23 | 300 | 6.4 | 0.0 | 0.00 | 0.00 | 0.00 | 43 | 1016.0 |
| 20260906014835 | 23 | 320 | 6.4 | 0.0 | 0.00 | 0.00 | 0.00 | 42 | 1015.0 |
| 20260906013337 | 23 | 320 | 6.4 | 0.0 | 0.00 | 0.00 | 0.00 | 42 | 1015.0 |
| 20260906011835 | 23 | 320 | 6.4 | 0.0 | 0.00 | 0.00 | 0.00 | 42 | 1016.0 |
| 20260906004834 | 24 | 310 | 6.4 | 0.0 | 0.00 | 0.00 | 0.00 | 43 | 1015.0 |
| 20260906003334 | 24 | 310 | 6.4 | 0.0 | 0.00 | 0.00 | 0.00 | 43 | 1015.0 |
| 20260906001834 | 24 | 310 | 6.4 | 0.0 | 0.00 | 0.00 | 0.00 | 43 | 1016.0 |
| 20260906000334 | 24 | 4 | 1.6 | 1.6 | 0.00 | 0.00 | 0.00 | 43 | 1015.0 |
| 20260905234834 | 24 | 355 | 1.6 | 3.2 | 0.00 | 0.00 | 0.00 | 43 | 1015.0 |
| 20260905233333 | 24 | 360 | 1.6 | 8.0 | 0.00 | 0.00 | 0.00 | 43 | 1015.0 |
| 20260905231833 | 24 | 343 | 16.1 | 19.3 | 0.00 | 0.00 | 0.00 | 42 | 1015.0 |
| 20260905230333 | 25 | 343 | 16.1 | 19.3 | 0.00 | 0.00 | 0.00 | 42 | 1016.0 |
| 20260905224832 | 25 | 0 | 3.2 | 0.0 | 0.00 | 0.00 | 0.00 | 42 | 1015.0 |
| 20260905223332 | 25 | 357 | 1.6 | 6.4 | 0.00 | 0.00 | 0.00 | 39 | 1015.0 |
| 20260905221832 | 26 | 360 | 3.2 | 12.9 | 0.00 | 0.00 | 0.00 | 37 | 1015.0 |
| 20260905220332 | 26 | 360 | 6.4 | 12.9 | 0.00 | 0.00 | 0.00 | 35 | 1016.0 |
| 20260905214831 | 26 | 310 | 6.4 | 0.0 | 0.00 | 0.00 | 0.00 | 35 | 1015.0 |
| 20260905213331 | 26 | 310 | 6.4 | 0.0 | 0.00 | 0.00 | 0.00 | 36 | 1015.0 |
| 20260905211831 | 25 | 310 | 6.4 | 0.0 | 0.00 | 0.00 | 0.00 | 41 | 1016.0 |
| 20260905210330 | 26 | 280 | 9.7 | 0.0 | 0.00 | 0.00 | 0.00 | 43 | 1015.0 |
| 20260905204830 | 26 | 280 | 9.7 | 0.0 | 0.00 | 0.00 | 0.00 | 44 | 1015.0 |
| 20260905203330 | 26 | 280 | 9.7 | 0.0 | 0.00 | 0.00 | 0.00 | 38 | 1015.0 |
| 20260905201830 | 26 | 280 | 9.7 | 0.0 | 0.00 | 0.00 | 0.00 | 39 | 1015.0 |
| 20260905200329 | 26 | 280 | 9.7 | 0.0 | 0.00 | 0.00 | 0.00 | 44 | 1015.0 |
| 20260905194829 | 27 | 290 | 14.5 | 0.0 | 0.00 | 0.00 | 0.00 | 39 | 1015.0 |
| 20260905193329 | 27 | 290 | 14.5 | 0.0 | 0.00 | 0.00 | 0.00 | 39 | 1015.0 |
| 20260905191829 | 27 | 290 | 14.5 | 0.0 | 0.00 | 0.00 | 0.00 | 39 | 1015.0 |
| 20260905190328 | 27 | 290 | 14.5 | 0.0 | 0.00 | 0.00 | 0.00 | 42 | 1015.0 |
| 20260905184828 | 27 | 290 | 14.5 | 0.0 | 0.00 | 0.00 | 0.00 | 42 | 1015.0 |
| 20260905183328 | 27 | 290 | 14.5 | 0.0 | 0.00 | 0.00 | 0.00 | 42 | 1015.0 |
| 20260905181828 | 27 | 310 | 9.7 | 0.0 | 0.00 | 0.00 | 0.00 | 44 | 1015.0 |
| 20260905180327 | 28 | 310 | 9.7 | 0.0 | 0.00 | 0.00 | 0.00 | 33 | 1015.0 |
| 20260905174827 | 28 | 300 | 14.5 | 0.0 | 0.00 | 0.00 | 0.00 | 36 | 1014.0 |
| 20260905173327 | 28 | 300 | 14.5 | 0.0 | 0.00 | 0.00 | 0.00 | 35 | 1014.0 |
| 20260905171827 | 28 | 300 | 9.7 | 0.0 | 0.00 | 0.00 | 0.00 | 33 | 1014.0 |
| 20260905170326 | 27 | 300 | 9.7 | 0.0 | 0.00 | 0.00 | 0.00 | 42 | 1014.0 |
| 20260905164821 | 28 | 310 | 14.5 | 0.0 | 0.00 | 0.00 | 0.00 | 37 | 1014.0 |
| 20260905163321 | 30 | 310 | 14.5 | 0.0 | 0.00 | 0.00 | 0.00 | 38 | 1014.0 |
| 20260905161821 | 30 | 310 | 14.5 | 0.0 | 0.00 | 0.00 | 0.00 | 37 | 1014.0 |
| 20260905160320 | 31 | 310 | 17.7 | 0.0 | 0.00 | 0.00 | 0.00 | 37 | 1013.0 |
| 20260905154820 | 31 | 310 | 17.7 | 0.0 | 0.00 | 0.00 | 0.00 | 38 | 1013.0 |
| 20260905153320 | 30 | 320 | 19.3 | 0.0 | 0.00 | 0.00 | 0.00 | 42 | 1013.0 |
| 20260905151820 | 31 | 320 | 19.3 | 0.0 | 0.00 | 0.00 | 0.00 | 46 | 1014.0 |
| 20260905150319 | 32 | 320 | 19.3 | 0.0 | 0.00 | 0.00 | 0.00 | 38 | 1014.0 |
| 20260905144814 | 32 | 320 | 20.9 | 0.0 | 0.00 | 0.00 | 0.00 | 36 | 1013.0 |
| 20260905143314 | 32 | 320 | 20.9 | 0.0 | 0.00 | 0.00 | 0.00 | 33 | 1013.0 |
| 20260905141814 | 31 | 320 | 20.9 | 0.0 | 0.00 | 0.00 | 0.00 | 32 | 1014.0 |
| 20260905140313 | 32 | 320 | 20.9 | 0.0 | 0.00 | 0.00 | 0.00 | 29 | 1014.0 |
| 20260905134813 | 31 | 320 | 20.9 | 0.0 | 0.00 | 0.00 | 0.00 | 30 | 1013.0 |
| 20260905133313 | 31 | 320 | 20.9 | 0.0 | 0.00 | 0.00 | 0.00 | 30 | 1013.0 |
| 20260905131813 | 31 | 320 | 20.9 | 0.0 | 0.00 | 0.00 | 0.00 | 30 | 1014.0 |
| 20260905130312 | 31 | 320 | 20.9 | 0.0 | 0.00 | 0.00 | 0.00 | 32 | 1014.0 |
| 20260905124812 | 32 | 320 | 20.9 | 0.0 | 0.00 | 0.00 | 0.00 | 28 | 1014.0 |
| 20260905123312 | 32 | 320 | 20.9 | 0.0 | 0.00 | 0.00 | 0.00 | 28 | 1014.0 |
| 20260905121812 | 31 | 310 | 19.3 | 0.0 | 0.00 | 0.00 | 0.00 | 35 | 1015.0 |
| 20260905120311 | 30 | 320 | 20.9 | 0.0 | 0.00 | 0.00 | 0.00 | 36 | 1014.0 |
| 20260905114811 | 31 | 320 | 20.9 | 0.0 | 0.00 | 0.00 | 0.00 | 33 | 1014.0 |
| 20260905113311 | 31 | 320 | 20.9 | 0.0 | 0.00 | 0.00 | 0.00 | 35 | 1014.0 |
| 20260905111811 | 30 | 320 | 22.5 | 0.0 | 0.00 | 0.00 | 0.00 | 40 | 1015.0 |
| 20260905110310 | 30 | 320 | 22.5 | 0.0 | 0.00 | 0.00 | 0.00 | 37 | 1015.0 |
| 20260905104810 | 30 | 320 | 22.5 | 0.0 | 0.00 | 0.00 | 0.00 | 39 | 1015.0 |
| 20260905103310 | 30 | 320 | 22.5 | 0.0 | 0.00 | 0.00 | 0.00 | 42 | 1015.0 |
| 20260905101810 | 29 | 320 | 17.7 | 0.0 | 0.00 | 0.00 | 0.00 | 44 | 1016.0 |
| 20260905100309 | 29 | 320 | 16.1 | 0.0 | 0.00 | 0.00 | 0.00 | 45 | 1015.0 |